FW6157 Weather Reports


Display with metric or nautical units.
time (UTC)temp
F
wind
direction
speed
MPH
gust
MPH
rain 1hr
in
rain 24hr
in
rain mn
in
humidity
%
barometer
mb
20260901014554 77 0 0.0 0.0 0.00 0.00 0.00 91 1018.9
20260901014025 77 0 0.0 0.0 0.00 0.00 0.00 91 1018.9
20260901013524 77 0 0.0 0.0 0.00 0.00 0.00 91 1018.9
20260901013101 77 0 0.0 0.0 0.00 0.00 0.00 91 1018.9
20260901012523 77 0 0.0 0.0 0.00 0.00 0.00 90 1018.7
20260901012026 78 0 0.0 0.0 0.00 0.00 0.00 90 1018.8
20260901011543 78 0 0.0 0.0 0.00 0.00 0.00 90 1018.7
20260901011025 78 0 0.0 0.0 0.00 0.00 0.00 90 1018.6
20260901010528 78 0 0.0 0.0 0.00 0.00 0.00 89 1018.5
20260901010055 78 0 0.0 0.0 0.00 0.00 0.00 89 1018.5
20260901005523 78 0 0.0 0.0 0.00 0.00 0.00 88 1018.4
20260901005024 78 0 0.0 0.0 0.00 0.00 0.00 88 1018.3
20260901004556 78 0 0.0 0.0 0.00 0.00 0.00 88 1018.4
20260901004022 79 0 0.0 0.0 0.00 0.00 0.00 87 1018.3
20260901003525 79 0 0.0 0.0 0.00 0.00 0.00 87 1018.1
20260901003054 79 0 0.0 0.0 0.00 0.00 0.00 87 1018.1
20260901002525 80 0 0.0 0.0 0.00 0.00 0.00 87 1018.0
20260901002025 80 0 0.0 0.0 0.00 0.00 0.00 86 1018.0
20260901001549 80 0 0.0 0.0 0.00 0.00 0.00 86 1018.0
20260901001024 81 0 0.0 0.0 0.00 0.00 0.00 86 1018.0
20260901000524 81 0 0.0 0.0 0.00 0.00 0.00 86 1017.9
20260901000049 82 0 0.0 0.0 0.00 0.00 0.00 86 1017.9
20260831235524 82 0 0.0 0.0 0.00 0.00 0.00 86 1017.8
20260831235028 82 0 0.0 0.0 0.00 0.00 0.00 85 1017.8
20260831234544 82 0 0.0 0.0 0.00 0.00 0.00 84 1017.8
20260831234023 83 0 0.0 0.0 0.00 0.00 0.00 84 1017.8
20260831233523 83 0 0.0 0.0 0.00 0.00 0.00 83 1017.8
20260831233043 83 0 0.0 0.0 0.00 0.00 0.00 83 1017.9
20260831232525 84 0 0.0 0.0 0.00 0.00 0.00 82 1017.9
20260831232021 84 0 0.0 0.0 0.00 0.00 0.00 83 1017.9
20260831231557 84 0 0.0 1.0 0.00 0.00 0.00 82 1018.0
20260831231024 85 0 0.0 1.0 0.00 0.00 0.00 80 1017.9
20260831230525 85 0 0.0 0.0 0.00 0.00 0.00 79 1018.0
20260831230050 86 0 0.0 0.0 0.00 0.00 0.00 79 1018.0
20260831225522 86 0 0.0 0.0 0.00 0.30 0.00 78 1018.0
20260831225027 86 0 0.0 0.0 0.00 0.30 0.00 76 1018.0
20260831224542 87 0 0.0 0.0 0.00 0.30 0.00 76 1018.0
20260831224025 87 0 0.0 0.0 0.00 0.30 0.00 76 1018.0
20260831223522 88 0 0.0 0.0 0.00 0.30 0.00 75 1017.9
20260831223048 88 0 0.0 0.0 0.00 0.30 0.00 74 1018.0
20260831222525 89 0 0.0 0.0 0.00 0.30 0.00 73 1017.9
20260831222023 89 0 0.0 3.0 0.00 0.30 0.00 70 1017.8
20260831221544 90 0 0.0 3.0 0.00 0.30 0.00 69 1017.8
20260831221023 90 303 0.0 2.0 0.00 0.30 0.00 68 1017.9
20260831220526 90 277 0.0 2.0 0.00 0.30 0.00 66 1017.8
20260831220043 90 51 0.0 4.0 0.00 0.30 0.00 64 1017.8
20260831215528 90 0 0.0 6.0 0.00 0.30 0.00 66 1017.8
20260831215027 90 355 1.0 6.0 0.00 0.30 0.00 64 1017.8
20260831214549 90 22 1.0 6.0 0.00 0.30 0.00 62 1017.9
20260831214023 90 0 0.0 4.0 0.00 0.30 0.00 65 1018.0
20260831213527 90 0 0.0 4.0 0.00 0.30 0.00 64 1018.0
20260831213046 90 0 0.0 3.0 0.00 0.30 0.00 66 1018.0
20260831212523 90 27 0.0 3.0 0.00 0.30 0.00 65 1018.1
20260831212024 90 0 0.0 4.0 0.00 0.30 0.00 62 1018.0
20260831211545 90 0 0.0 4.0 0.00 0.30 0.00 66 1018.1
20260831211026 90 126 1.0 4.0 0.00 0.30 0.00 64 1018.1
20260831210531 91 0 2.0 4.0 0.00 0.30 0.00 63 1018.1
20260831210040 91 44 0.0 3.0 0.00 0.30 0.00 64 1018.1
20260831205527 91 0 0.0 4.0 0.00 0.30 0.00 62 1018.1
20260831205025 91 0 0.0 4.0 0.00 0.30 0.00 64 1018.3
20260831204547 91 0 0.0 3.0 0.00 0.30 0.00 63 1018.3
20260831204023 91 0 0.0 3.0 0.00 0.30 0.00 60 1018.3
20260831203522 91 0 0.0 4.0 0.00 0.30 0.00 61 1018.2
20260831203042 91 15 2.0 5.0 0.00 0.30 0.00 63 1018.3
20260831202523 91 329 1.0 5.0 0.00 0.30 0.00 63 1018.4
20260831202026 91 0 0.0 4.0 0.00 0.30 0.00 63 1018.4
20260831201552 92 112 1.0 4.0 0.00 0.30 0.00 61 1018.5
20260831201028 91 0 0.0 5.0 0.00 0.30 0.00 63 1018.5
20260831200527 91 0 1.0 5.0 0.00 0.30 0.00 65 1018.5
20260831200045 91 24 0.0 7.0 0.00 0.30 0.00 64 1018.7
20260831195524 91 0 1.0 7.0 0.00 0.30 0.00 61 1018.7
20260831195027 90 0 0.0 2.0 0.00 0.30 0.00 63 1018.8
20260831194628 90 0 0.0 4.0 0.00 0.30 0.00 67 1018.9
20260831194025 89 38 0.0 4.0 0.00 0.30 0.00 66 1018.9
20260831193525 89 26 2.0 4.0 0.00 0.30 0.00 67 1019.1
20260831193042 89 142 0.0 6.0 0.00 0.30 0.00 71 1019.3
20260831192525 89 128 2.0 6.0 0.00 0.30 0.00 69 1019.2
20260831192029 88 355 1.0 4.0 0.00 0.30 0.00 72 1019.1
20260831191548 88 0 0.0 0.0 0.00 0.30 0.00 71 1019.2
20260831191029 88 0 0.0 4.0 0.00 0.30 0.00 71 1019.4
20260831190523 89 0 1.0 4.0 0.00 0.30 0.00 71 1019.5
20260831190057 89 36 0.0 3.0 0.00 0.30 0.00 68 1019.6
20260831185526 89 298 0.0 0.0 0.00 0.30 0.00 69 1019.7
20260831185022 89 0 0.0 0.0 0.00 0.30 0.00 70 1019.7
20260831184553 88 0 0.0 0.0 0.00 0.30 0.00 72 1019.8
20260831184025 87 0 0.0 3.0 0.00 0.30 0.00 76 1019.9
20260831183524 87 0 0.0 3.0 0.00 0.30 0.00 75 1019.9
20260831183052 87 328 1.0 3.0 0.00 0.30 0.00 73 1019.9
20260831182528 86 325 1.0 5.0 0.00 0.30 0.00 73 1020.0
20260831182024 87 321 0.0 5.0 0.00 0.30 0.00 74 1020.1
20260831181550 87 0 1.0 5.0 0.00 0.30 0.00 71 1020.1
20260831181023 87 0 0.0 5.0 0.00 0.30 0.00 75 1020.1
20260831180522 87 0 1.0 5.0 0.00 0.30 0.00 72 1020.2
20260831180044 87 0 0.0 4.0 0.00 0.30 0.00 74 1020.1
20260831175529 87 0 0.0 5.0 0.00 0.30 0.00 74 1020.1
20260831175026 87 37 1.0 5.0 0.00 0.30 0.00 73 1020.2
20260831174545 87 0 1.0 4.0 0.00 0.30 0.00 72 1020.1
20260831174028 87 0 1.0 4.0 0.00 0.30 0.00 74 1020.2
20260831173524 86 0 0.0 3.0 0.00 0.30 0.00 73 1020.4
20260831173049 86 37 0.0 3.0 0.00 0.30 0.00 75 1020.4
20260831172524 86 45 0.0 3.0 0.00 0.30 0.00 75 1020.3
20260831172031 85 0 0.0 3.0 0.00 0.30 0.00 75 1020.6
20260831171545 85 0 0.0 3.0 0.00 0.30 0.00 78 1020.6
20260831171024 86 0 0.0 3.0 0.00 0.30 0.00 73 1020.7
20260831170523 86 0 1.0 3.0 0.00 0.30 0.00 76 1020.8
20260831170045 87 0 1.0 5.0 0.00 0.30 0.00 76 1020.8
20260831165523 87 20 1.0 5.0 0.00 0.30 0.00 73 1020.7
20260831165026 87 126 1.0 8.0 0.00 0.30 0.00 73 1020.7
20260831164543 86 136 2.0 8.0 0.00 0.30 0.00 75 1020.7
20260831164026 85 45 0.0 4.0 0.00 0.30 0.00 78 1020.7
20260831163528 84 44 1.0 3.0 0.00 0.30 0.00 76 1020.7
20260831163043 84 41 0.0 4.0 0.00 0.30 0.00 77 1020.7
20260831162529 85 0 0.0 4.0 0.00 0.30 0.00 77 1020.9
20260831162027 85 360 2.0 4.0 0.00 0.30 0.00 80 1020.9
20260831161553 85 5 1.0 5.0 0.00 0.30 0.00 80 1020.9
20260831161025 85 26 1.0 5.0 0.00 0.30 0.00 77 1021.1
20260831160525 85 25 0.0 6.0 0.00 0.30 0.00 78 1021.1
20260831160050 85 0 0.0 7.0 0.00 0.30 0.00 78 1021.1
20260831155524 85 44 2.0 7.0 0.00 0.30 0.00 78 1021.3
20260831155028 85 0 0.0 5.0 0.00 0.30 0.00 81 1021.0
20260831154611 85 174 1.0 6.0 0.00 0.30 0.00 77 1021.1
20260831154024 85 0 1.0 6.0 0.00 0.30 0.00 80 1021.2
20260831153526 84 0 0.0 6.0 0.00 0.30 0.00 81 1021.1
20260831153045 84 32 1.0 4.0 0.00 0.30 0.00 81 1021.2
20260831152526 84 0 0.0 3.0 0.00 0.30 0.00 83 1021.1
20260831152026 83 46 0.0 6.0 0.00 0.30 0.00 84 1021.1
20260831151601 83 45 1.0 6.0 0.00 0.30 0.00 83 1021.1
20260831151025 83 0 1.0 6.0 0.00 0.30 0.00 82 1021.2
20260831150524 83 0 0.0 6.0 0.00 0.30 0.00 84 1021.1
20260831150048 82 116 0.0 7.0 0.00 0.30 0.00 85 1021.1
20260831145525 82 121 2.0 7.0 0.00 0.30 0.00 86 1021.1
20260831145026 81 135 1.0 4.0 0.00 0.30 0.00 88 1021.1
20260831144612 80 0 1.0 3.0 0.00 0.30 0.00 90 1021.2
20260831144029 80 0 0.0 3.0 0.00 0.30 0.00 90 1021.1
20260831143531 80 0 0.0 4.0 0.00 0.30 0.00 91 1021.1
20260831143043 79 94 0.0 4.0 0.00 0.30 0.00 91 1021.2
20260831142527 79 0 0.0 3.0 0.00 0.30 0.00 92 1021.1
20260831142026 79 121 1.0 6.0 0.00 0.30 0.00 92 1021.1
20260831141551 78 120 0.0 6.0 0.00 0.30 0.00 94 1021.1
20260831141024 78 113 0.0 4.0 0.00 0.30 0.00 95 1021.0
20260831140528 77 0 0.0 2.0 0.00 0.30 0.00 96 1020.9
20260831140044 77 0 0.0 2.0 0.00 0.30 0.00 97 1021.0
20260831135524 77 0 0.0 3.0 0.00 0.30 0.00 98 1021.0
20260831135030 76 0 0.0 3.0 0.00 0.30 0.00 98 1021.0
20260831134546 76 0 0.0 3.0 0.00 0.30 0.00 98 1021.0
20260831134024 76 19 0.0 4.0 0.00 0.30 0.00 98 1021.1
20260831133522 75 19 1.0 4.0 0.00 0.30 0.00 98 1021.0
20260831133101 75 17 1.0 3.0 0.00 0.30 0.00 99 1021.1
20260831132524 75 0 0.0 0.0 0.00 0.30 0.00 99 1021.1
20260831132024 75 0 0.0 0.0 0.00 0.30 0.00 98 1021.1
20260831131600 75 0 0.0 0.0 0.00 0.30 0.00 99 1021.1
20260831131025 74 0 0.0 0.0 0.00 0.30 0.00 98 1021.0
20260831130524 74 0 0.0 0.0 0.00 0.30 0.00 98 1021.1
20260831130045 74 0 0.0 0.0 0.00 0.30 0.00 98 1021.1
20260831125528 74 0 0.0 0.0 0.00 0.30 0.00 98 1021.1
20260831125023 73 0 0.0 0.0 0.00 0.30 0.00 98 1021.0
20260831124552 73 0 0.0 0.0 0.00 0.30 0.00 98 1020.9
20260831124026 73 0 0.0 0.0 0.00 0.30 0.00 98 1020.8
20260831123523 73 0 0.0 0.0 0.00 0.30 0.00 98 1020.9
20260831123047 72 0 0.0 0.0 0.00 0.30 0.00 98 1021.0
20260831122525 72 0 0.0 0.0 0.00 0.30 0.00 98 1020.9
20260831122028 72 0 0.0 0.0 0.00 0.30 0.00 98 1020.9
20260831121549 72 0 0.0 0.0 0.00 0.30 0.00 98 1020.9
20260831121026 72 0 0.0 1.0 0.00 0.30 0.00 98 1020.8
20260831120526 71 0 0.0 1.0 0.00 0.30 0.00 98 1020.8
20260831120045 71 0 0.0 0.0 0.00 0.30 0.00 98 1020.7
20260831115527 71 0 0.0 0.0 0.00 0.30 0.00 98 1020.7
20260831115022 71 0 0.0 0.0 0.00 0.30 0.00 98 1020.7
20260831114552 71 0 0.0 0.0 0.00 0.30 0.00 98 1020.6
20260831114022 71 0 0.0 0.0 0.00 0.30 0.00 97 1020.6
20260831113526 71 0 0.0 0.0 0.00 0.30 0.00 98 1020.6
20260831113043 70 0 0.0 0.0 0.00 0.30 0.00 97 1020.5
20260831112528 70 0 0.0 0.0 0.00 0.30 0.00 97 1020.5
20260831112024 70 0 0.0 0.0 0.00 0.30 0.00 97 1020.5
20260831111553 70 0 0.0 0.0 0.00 0.30 0.00 97 1020.4
20260831111025 70 0 0.0 0.0 0.00 0.30 0.00 97 1020.3
20260831110524 70 0 0.0 0.0 0.00 0.30 0.00 97 1020.3
20260831110044 70 0 0.0 0.0 0.00 0.30 0.00 97 1020.3
20260831105523 70 0 0.0 0.0 0.00 0.30 0.00 97 1020.3
20260831105025 70 0 0.0 0.0 0.00 0.30 0.00 97 1020.1
20260831104545 70 0 0.0 0.0 0.00 0.30 0.00 97 1020.1
20260831104025 70 0 0.0 0.0 0.00 0.30 0.00 97 1020.0
20260831103525 70 0 0.0 0.0 0.00 0.30 0.00 97 1020.0
20260831103048 70 0 0.0 0.0 0.00 0.30 0.00 97 1020.0
20260831102525 70 0 0.0 0.0 0.00 0.30 0.00 97 1019.9
20260831102023 70 0 0.0 0.0 0.00 0.30 0.00 97 1019.9
20260831101546 70 0 0.0 0.0 0.00 0.30 0.00 97 1019.9
20260831101025 70 0 0.0 0.0 0.00 0.30 0.00 97 1019.8
20260831100526 70 0 0.0 0.0 0.00 0.30 0.00 97 1019.7
20260831100110 70 0 0.0 0.0 0.00 0.30 0.00 97 1019.7
20260831095524 70 0 0.0 0.0 0.00 0.30 0.00 97 1019.7
20260831095025 70 0 0.0 0.0 0.00 0.30 0.00 97 1019.6
20260831094542 70 0 0.0 0.0 0.00 0.30 0.00 97 1019.6
20260831094023 71 0 0.0 0.0 0.00 0.30 0.00 97 1019.6
20260831093530 70 0 0.0 0.0 0.00 0.30 0.00 97 1019.6
20260831093051 71 0 0.0 0.0 0.00 0.30 0.00 97 1019.6
20260831092529 71 0 0.0 0.0 0.00 0.30 0.00 97 1019.6
20260831092024 71 0 0.0 0.0 0.00 0.30 0.00 97 1019.6
20260831091552 71 0 0.0 0.0 0.00 0.30 0.00 97 1019.6
20260831091030 71 0 0.0 0.0 0.00 0.30 0.00 97 1019.6
20260831090525 71 0 0.0 0.0 0.00 0.30 0.00 97 1019.6
20260831090043 71 0 0.0 0.0 0.00 0.30 0.00 97 1019.6
20260831085526 71 0 0.0 0.0 0.00 0.30 0.00 97 1019.6
20260831085031 71 0 0.0 0.0 0.00 0.30 0.00 97 1019.5
20260831084619 71 0 0.0 0.0 0.00 0.30 0.00 97 1019.5
20260831084025 71 0 0.0 0.0 0.00 0.30 0.00 97 1019.5
20260831083524 71 0 0.0 0.0 0.00 0.30 0.00 97 1019.5
20260831083045 71 0 0.0 0.0 0.00 0.30 0.00 97 1019.6
20260831082524 71 0 0.0 0.0 0.00 0.30 0.00 97 1019.5
20260831082023 71 0 0.0 0.0 0.00 0.30 0.00 97 1019.4
20260831081544 71 0 0.0 0.0 0.00 0.30 0.00 97 1019.4
20260831081022 71 0 0.0 0.0 0.00 0.30 0.00 97 1019.4
20260831080524 71 0 0.0 0.0 0.00 0.30 0.00 97 1019.4
20260831080105 71 0 0.0 0.0 0.00 0.30 0.00 97 1019.4
20260831075523 71 0 0.0 0.0 0.00 0.30 0.00 97 1019.5
20260831075024 71 0 0.0 0.0 0.00 0.30 0.00 97 1019.5
20260831074559 71 0 0.0 0.0 0.00 0.30 0.00 97 1019.5
20260831074023 71 0 0.0 0.0 0.00 0.30 0.00 97 1019.5
20260831073526 71 0 0.0 0.0 0.00 0.30 0.00 97 1019.5
20260831073052 71 0 0.0 0.0 0.00 0.30 0.00 97 1019.5
20260831072524 71 0 0.0 0.0 0.00 0.30 0.00 97 1019.6
20260831072025 71 0 0.0 0.0 0.00 0.30 0.00 97 1019.5
20260831071549 71 0 0.0 0.0 0.00 0.30 0.00 97 1019.5
20260831071024 72 0 0.0 0.0 0.00 0.30 0.00 97 1019.4
20260831070524 72 0 0.0 0.0 0.00 0.30 0.00 97 1019.5
20260831070052 72 0 0.0 0.0 0.00 0.30 0.00 97 1019.5
20260831065526 72 0 0.0 0.0 0.00 0.30 0.00 97 1019.5
20260831065025 72 0 0.0 0.0 0.00 0.30 0.00 97 1019.4
20260831064547 72 0 0.0 0.0 0.00 0.30 0.00 97 1019.5
20260831064025 72 0 0.0 0.0 0.00 0.30 0.00 97 1019.5
20260831063523 72 0 0.0 0.0 0.00 0.30 0.00 97 1019.4
20260831063043 72 0 0.0 0.0 0.00 0.30 0.00 97 1019.5
20260831062523 72 0 0.0 0.0 0.00 0.30 0.00 97 1019.4
20260831062027 72 0 0.0 0.0 0.00 0.30 0.00 97 1019.4
20260831061545 72 0 0.0 0.0 0.00 0.30 0.00 97 1019.4
20260831061023 72 0 0.0 0.0 0.00 0.30 0.00 97 1019.6
20260831060525 72 0 0.0 0.0 0.00 0.30 0.00 97 1019.5
20260831055524 72 0 0.0 0.0 0.00 0.30 0.00 97 1019.7
20260831055024 72 0 0.0 0.0 0.00 0.30 0.00 96 1019.7
20260831054547 72 0 0.0 0.0 0.00 0.30 0.00 97 1019.8
20260831054023 72 0 0.0 0.0 0.00 0.30 0.00 97 1019.8
20260831053523 72 0 0.0 0.0 0.00 0.30 0.00 96 1019.8
20260831053104 72 0 0.0 0.0 0.00 0.30 0.00 96 1019.7
20260831052524 72 0 0.0 0.0 0.00 0.30 0.00 97 1019.8
20260831052022 73 0 0.0 0.0 0.00 0.30 0.00 97 1019.7
20260831051547 73 0 0.0 0.0 0.00 0.30 0.00 97 1019.8
20260831051024 73 0 0.0 0.0 0.00 0.30 0.00 97 1019.8
20260831050523 73 0 0.0 0.0 0.00 0.30 0.00 97 1019.8
20260831050104 73 0 0.0 0.0 0.00 0.30 0.00 97 1019.7
20260831045524 73 0 0.0 0.0 0.00 0.30 0.00 96 1019.7
20260831045027 73 0 0.0 0.0 0.00 0.30 0.00 96 1019.8
20260831044545 73 0 0.0 0.0 0.00 0.30 0.00 97 1019.7
20260831044022 73 0 0.0 0.0 0.00 0.30 0.00 97 1019.7
20260831043524 73 0 0.0 0.0 0.00 0.30 0.00 96 1019.7
20260831043052 73 0 0.0 0.0 0.00 0.30 0.00 96 1019.6
20260831042525 73 0 0.0 0.0 0.00 0.30 0.00 96 1019.7
20260831042023 73 0 0.0 0.0 0.00 0.30 0.00 96 1019.8
20260831041553 73 0 0.0 0.0 0.00 0.30 0.00 96 1019.7
20260831041025 73 0 0.0 0.0 0.00 0.30 0.00 96 1019.6
20260831040522 73 0 0.0 0.0 0.00 0.30 0.00 96 1019.6
20260831040043 74 0 0.0 0.0 0.00 0.30 0.00 96 1019.8
20260831035524 74 0 0.0 0.0 0.00 0.30 0.30 96 1019.8
20260831035024 74 0 0.0 0.0 0.00 0.30 0.30 96 1019.9
20260831034548 74 0 0.0 0.0 0.00 0.30 0.30 96 1019.8
20260831034023 74 0 0.0 0.0 0.00 0.30 0.30 96 1019.9
20260831033529 74 0 0.0 0.0 0.00 0.30 0.30 96 1020.1
20260831033100 74 0 0.0 0.0 0.00 0.30 0.30 96 1020.0
20260831032528 74 0 0.0 0.0 0.00 0.30 0.30 96 1020.0
20260831032024 74 0 0.0 0.0 0.00 0.30 0.30 96 1019.9
20260831031553 74 0 0.0 0.0 0.00 0.30 0.30 96 1019.8
20260831031024 74 0 0.0 0.0 0.00 0.30 0.30 96 1019.9
20260831030524 75 0 0.0 0.0 0.00 0.30 0.30 96 1020.0
20260831030047 75 0 0.0 0.0 0.00 0.30 0.30 96 1020.0
20260831025525 75 0 0.0 0.0 0.00 0.30 0.30 96 1019.9
20260831025026 75 0 0.0 0.0 0.00 0.30 0.30 96 1020.0
20260831024541 75 0 0.0 0.0 0.00 0.30 0.30 96 1020.1
20260831024021 75 0 0.0 0.0 0.00 0.30 0.30 96 1019.9
20260831023522 75 0 0.0 0.0 0.00 0.30 0.30 96 1019.9
20260831023049 75 0 0.0 0.0 0.00 0.30 0.30 96 1019.9
20260831022524 75 0 0.0 0.0 0.00 0.30 0.30 96 1019.8
20260831022024 75 0 0.0 0.0 0.00 0.30 0.30 96 1019.7
20260831021545 75 0 0.0 0.0 0.00 0.30 0.30 96 1019.7
20260831021023 75 0 0.0 0.0 0.00 0.30 0.30 96 1019.8
20260831020530 75 0 0.0 0.0 0.00 0.30 0.30 96 1019.7
20260831020044 75 0 0.0 0.0 0.00 0.30 0.30 96 1019.8
20260831015533 75 0 0.0 0.0 0.00 0.30 0.30 96 1020.0
20260831015027 75 0 0.0 0.0 0.00 0.30 0.30 96 1019.8